Location: Recife
(8.0585°S, 34.8848°W)
Time: 05:16:50
(UTC-03:00)

Courier 1B - Pass Details

Date: 17 April 2026
Orbit: 962 x 1209 km, 28.3° (Epoch: 14 May)

Event Time Altitude Azimuth Distance (km) Brightness Sun altitude
Rises 03:31:13 0° 311° (NW) 3,861 - -27.9°
Reaches altitude 10° 03:33:57 10° 315° (NW) 2,943 - -27.2°
Exits shadow 03:37:01 27° 326° (NNW) 2,012 8.9 -26.4°
Maximum altitude 03:41:03 54° 31° (NNE) 1,364 8.4 -25.5°
Drops below altitude 10° 03:48:33 10° 107° (ESE) 3,109 11.0 -23.6°
Sets 03:51:31 0° 111° (ESE) 4,093 11.7 -22.9°
